Regional Weather Roundup
Issued by NWS

Home | Current Version | Previous Version | Graphics & Text | Print | Product List | Glossary Off
Versions: 1 2 3 4 5 6 7 8 9 10 11 12 13 14 15 16 17 18 19 20 21 22 23 24 25 26 27 28 29 30 31 32 33 34 35 36 37 38 39 40 41 42 43 44 45 46 47 48 49 50

000
ASUS43 KFSD 280602
RWRSD

WEATHER ROUNDUP FOR SOUTH DAKOTA
NATIONAL WEATHER SERVICE SIOUX FALLS SD
100 AM CDT TUE JUL 28 2015

NOTE: "FAIR" INDICATES FEW OR NO CLOUDS BELOW 12,000 FEET WITH NO
SIGNIFICANT WEATHER AND/OR OBSTRUCTIONS TO VISIBILITY.


SDZ001>005-009-010-012>017-280700-
NORTHWEST AND NORTH CENTRAL SOUTH DAKOTA

CITY           SKY/WX    TMP DP  RH WIND       PRES   REMARKS
FAITH            N/A     66  60  81 W12       29.74R
MOBRIDGE       CLOUDY    70  65  84 E20G26    29.54F
$$

SDZ012>016-024>037-041>051-057-063-072>074-280700-
SOUTHWEST AND SOUTH CENTRAL SOUTH DAKOTA

CITY           SKY/WX    TMP DP  RH WIND       PRES   REMARKS
RAPID CTY ARPT PTCLDY    63  54  72 NW23G35   29.81R
PIERRE         LGT RAIN  68  65  90 S6G22     29.65S
CUSTER         CLEAR     58  49  72 NW9       29.92R
ELLSWORTH AFB  CLEAR     63  53  69 N24G35    29.80R
PHILIP         CLOUDY    67  65  93 SE5       29.67F
PINE RIDGE     MOCLDY    63  59  87 SW5       29.79R
WINNER         TSTM      67  64  90 NW31G38   29.79R VSB 1
$$

SDZ004>011-016>023-039-040-280700-
NORTHEAST SOUTH DAKOTA

CITY           SKY/WX    TMP DP  RH WIND       PRES   REMARKS
ABERDEEN       CLOUDY    78  72  81 SE14      29.65F
WATERTOWN      CLOUDY    76  72  87 SE14G22   29.73F
BROOKINGS      CLOUDY    73  70  88 SE18      29.79F THUNDER
$$

SDZ017-020-022-023-036>040-048>070-280700-
SOUTHEAST SOUTH DAKOTA

CITY           SKY/WX    TMP DP  RH WIND       PRES   REMARKS
SIOUX FALLS    LGT RAIN  75  70  84 S17G24    29.77F
HURON          MOCLDY    79  75  87 SE20G29   29.64F
MITCHELL       MOCLDY    79  75  87 SE23G31   29.68F
YANKTON        CLOUDY    75  70  83 SE13      29.75S
$$

ABBREVIATIONS USED IN REMARKS
   TC - TEMPERATURE IN CELSIUS
  WCI - WIND CHILL INDEX
   HX - HEAT INDEX
  VSB - VISIBILITY



USA.gov is the U.S. government's official web portal to all federal, state and local government web resources and services.